| time (UTC) | temp C | wind direction | speed KPH | gust KPH | rain 1hr cm | rain 24hr cm | rain mn cm | humidity % | barometer mb |
| 20260906093006 | 21 | 169 | 0.0 | 3.2 | 0.00 | 1.47 | 0.03 | 92 | 1015.6 |
| 20260906092503 | 21 | 161 | 1.6 | 4.8 | 0.00 | 1.47 | 0.03 | 92 | 1015.7 |
| 20260906092001 | 21 | 135 | 1.6 | 4.8 | 0.00 | 1.47 | 0.03 | 92 | 1015.6 |
| 20260906090958 | 21 | 170 | 1.6 | 9.7 | 0.00 | 1.47 | 0.03 | 92 | 1015.6 |
| 20260906090456 | 21 | 127 | 1.6 | 6.4 | 0.00 | 1.47 | 0.03 | 93 | 1015.5 |
| 20260906085956 | 21 | 128 | 1.6 | 6.4 | 0.00 | 1.47 | 0.03 | 93 | 1015.5 |
| 20260906085429 | 21 | 5 | 0.0 | 4.8 | 0.00 | 1.47 | 0.03 | 93 | 1015.4 |
| 20260906084929 | 21 | 180 | 0.0 | 0.0 | 0.00 | 1.47 | 0.03 | 93 | 1015.4 |
| 20260906084417 | 21 | 142 | 0.0 | 0.0 | 0.00 | 1.47 | 0.03 | 93 | 1015.4 |
| 20260906083903 | 21 | 298 | 0.0 | 0.0 | 0.00 | 1.47 | 0.03 | 92 | 1015.4 |
| 20260906082902 | 21 | 297 | 0.0 | 0.0 | 0.00 | 1.47 | 0.03 | 92 | 1015.4 |
| 20260906082402 | 21 | 298 | 0.0 | 0.0 | 0.00 | 1.47 | 0.03 | 92 | 1015.4 |
| 20260906081342 | 21 | 298 | 0.0 | 0.0 | 0.00 | 1.47 | 0.03 | 92 | 1015.2 |
| 20260906080830 | 21 | 297 | 0.0 | 0.0 | 0.00 | 1.47 | 0.03 | 92 | 1015.2 |
| 20260906080310 | 21 | 298 | 0.0 | 0.0 | 0.00 | 1.47 | 0.03 | 92 | 1015.2 |
| 20260906075814 | 21 | 280 | 0.0 | 0.0 | 0.00 | 1.47 | 0.03 | 92 | 1015.1 |
| 20260906075252 | 21 | 280 | 0.0 | 0.0 | 0.00 | 1.47 | 0.03 | 92 | 1015.2 |
| 20260906074741 | 21 | 280 | 0.0 | 0.0 | 0.00 | 1.47 | 0.03 | 92 | 1015.2 |
| 20260906074222 | 21 | 280 | 0.0 | 0.0 | 0.00 | 1.47 | 0.03 | 92 | 1015.2 |
| 20260906073705 | 21 | 280 | 0.0 | 0.0 | 0.00 | 1.47 | 0.03 | 92 | 1015.1 |
| 20260906073202 | 21 | 280 | 0.0 | 0.0 | 0.00 | 1.47 | 0.03 | 92 | 1015.1 |
| 20260906072653 | 21 | 280 | 0.0 | 0.0 | 0.00 | 1.47 | 0.03 | 92 | 1015.0 |
| 20260906072145 | 21 | 280 | 0.0 | 0.0 | 0.00 | 1.47 | 0.03 | 92 | 1015.1 |
| 20260906071611 | 22 | 280 | 0.0 | 0.0 | 0.00 | 1.47 | 0.03 | 92 | 1015.1 |
| 20260906071111 | 22 | 280 | 0.0 | 0.0 | 0.00 | 1.47 | 0.03 | 92 | 1015.3 |
| 20260906070600 | 22 | 280 | 0.0 | 0.0 | 0.00 | 1.47 | 0.03 | 92 | 1015.4 |
| 20260906065527 | 22 | 280 | 0.0 | 0.0 | 0.00 | 1.47 | 0.03 | 92 | 1015.4 |
| 20260906065005 | 22 | 280 | 0.0 | 0.0 | 0.00 | 1.47 | 0.03 | 92 | 1015.4 |
| 20260906064003 | 22 | 280 | 0.0 | 0.0 | 0.00 | 1.47 | 0.03 | 92 | 1015.3 |
| 20260906063503 | 22 | 280 | 0.0 | 0.0 | 0.00 | 1.47 | 0.03 | 92 | 1015.2 |
| 20260906063001 | 22 | 280 | 0.0 | 0.0 | 0.00 | 1.47 | 0.03 | 92 | 1015.2 |
| 20260906062500 | 22 | 280 | 0.0 | 0.0 | 0.00 | 1.47 | 0.03 | 92 | 1015.3 |
| 20260906061953 | 22 | 280 | 0.0 | 0.0 | 0.00 | 1.47 | 0.03 | 92 | 1015.3 |
| 20260906061428 | 22 | 280 | 0.0 | 0.0 | 0.00 | 1.47 | 0.03 | 92 | 1015.3 |
| 20260906060924 | 22 | 280 | 0.0 | 0.0 | 0.00 | 1.47 | 0.03 | 92 | 1015.4 |
| 20260906060406 | 22 | 280 | 0.0 | 0.0 | 0.00 | 1.47 | 0.03 | 92 | 1015.4 |
| 20260906055905 | 22 | 280 | 0.0 | 0.0 | 0.00 | 1.47 | 0.03 | 91 | 1015.5 |
| 20260906055406 | 22 | 280 | 0.0 | 0.0 | 0.00 | 1.47 | 0.03 | 91 | 1015.5 |
| 20260906054904 | 22 | 280 | 0.0 | 0.0 | 0.00 | 1.47 | 0.03 | 91 | 1015.4 |
| 20260906054404 | 22 | 280 | 0.0 | 0.0 | 0.00 | 1.47 | 0.03 | 91 | 1015.4 |
| 20260906053902 | 22 | 280 | 0.0 | 0.0 | 0.00 | 1.47 | 0.03 | 91 | 1015.3 |
| 20260906053353 | 22 | 280 | 0.0 | 0.0 | 0.00 | 1.47 | 0.03 | 91 | 1015.2 |
| 20260906052814 | 22 | 280 | 0.0 | 0.0 | 0.00 | 1.47 | 0.03 | 91 | 1015.2 |
| 20260906052308 | 22 | 280 | 0.0 | 0.0 | 0.00 | 1.47 | 0.03 | 91 | 1015.2 |
| 20260906051255 | 22 | 280 | 0.0 | 0.0 | 0.00 | 1.47 | 0.03 | 91 | 1015.2 |
| 20260906050744 | 22 | 280 | 0.0 | 0.0 | 0.00 | 1.47 | 0.03 | 91 | 1015.1 |
| 20260906050206 | 22 | 280 | 0.0 | 0.0 | 0.03 | 1.47 | 0.03 | 91 | 1015.0 |
| 20260906045624 | 22 | 280 | 0.0 | 0.0 | 0.03 | 1.47 | 0.03 | 91 | 1015.1 |
| 20260906045107 | 23 | 280 | 0.0 | 0.0 | 0.03 | 1.47 | 0.03 | 91 | 1015.1 |
| 20260906044105 | 23 | 280 | 0.0 | 0.0 | 0.03 | 1.47 | 0.03 | 91 | 1015.0 |
| 20260906043605 | 23 | 280 | 0.0 | 0.0 | 0.03 | 1.47 | 0.03 | 90 | 1015.0 |
| 20260906043101 | 23 | 280 | 0.0 | 0.0 | 0.03 | 1.47 | 0.03 | 90 | 1014.9 |
| 20260906042553 | 23 | 280 | 0.0 | 0.0 | 0.03 | 1.47 | 0.03 | 90 | 1014.9 |
| 20260906042049 | 23 | 280 | 0.0 | 0.0 | 0.03 | 1.47 | 0.03 | 90 | 1015.0 |
| 20260906041549 | 23 | 280 | 0.0 | 0.0 | 0.03 | 1.47 | 0.03 | 90 | 1014.9 |
| 20260906041039 | 23 | 280 | 0.0 | 0.0 | 0.03 | 1.47 | 0.03 | 90 | 1014.9 |
| 20260906040527 | 23 | 280 | 0.0 | 0.0 | 0.03 | 1.47 | 0.03 | 90 | 1014.9 |
| 20260906040023 | 23 | 280 | 0.0 | 0.0 | 0.00 | 1.45 | 0.00 | 90 | 1014.8 |
| 20260906034516 | 23 | 302 | 0.0 | 0.0 | 0.00 | 1.45 | 1.45 | 90 | 1014.9 |
| 20260906034016 | 23 | 292 | 0.0 | 0.0 | 0.00 | 1.45 | 1.45 | 90 | 1014.8 |
| 20260906033505 | 23 | 285 | 0.0 | 0.0 | 0.00 | 1.45 | 1.45 | 90 | 1014.7 |
| 20260906033000 | 23 | 285 | 0.0 | 0.0 | 0.00 | 1.45 | 1.45 | 90 | 1014.7 |
| 20260906032500 | 23 | 259 | 0.0 | 0.0 | 0.00 | 1.45 | 1.45 | 90 | 1014.7 |
| 20260906031957 | 23 | 259 | 0.0 | 0.0 | 0.00 | 1.45 | 1.45 | 90 | 1014.7 |
| 20260906031449 | 23 | 259 | 0.0 | 0.0 | 0.00 | 1.45 | 1.45 | 90 | 1014.7 |
| 20260906030942 | 24 | 259 | 0.0 | 0.0 | 0.00 | 1.45 | 1.45 | 90 | 1014.7 |
| 20260906030448 | 24 | 259 | 0.0 | 0.0 | 0.00 | 1.45 | 1.45 | 90 | 1014.9 |
| 20260906025920 | 24 | 259 | 0.0 | 3.2 | 0.00 | 1.45 | 1.45 | 90 | 1014.9 |
| 20260906025406 | 24 | 259 | 0.0 | 3.2 | 0.00 | 1.45 | 1.45 | 90 | 1014.9 |
| 20260906024903 | 24 | 259 | 0.0 | 3.2 | 0.00 | 1.45 | 1.45 | 90 | 1014.6 |
| 20260906024402 | 24 | 115 | 0.0 | 3.2 | 0.00 | 1.45 | 1.45 | 89 | 1014.5 |
| 20260906023858 | 24 | 114 | 0.0 | 3.2 | 0.00 | 1.45 | 1.45 | 89 | 1014.5 |
| 20260906023359 | 24 | 237 | 0.0 | 3.2 | 0.00 | 1.45 | 1.45 | 89 | 1014.5 |
| 20260906022851 | 24 | 5 | 0.0 | 4.8 | 0.00 | 1.45 | 1.45 | 89 | 1014.4 |
| 20260906022347 | 25 | 23 | 1.6 | 4.8 | 0.00 | 1.45 | 1.45 | 89 | 1014.3 |
| 20260906021841 | 25 | 327 | 1.6 | 4.8 | 0.00 | 1.45 | 1.45 | 89 | 1014.3 |
| 20260906021340 | 25 | 306 | 1.6 | 6.4 | 0.03 | 1.45 | 1.45 | 89 | 1014.3 |
| 20260906020329 | 25 | 188 | 0.0 | 3.2 | 0.03 | 1.45 | 1.45 | 89 | 1014.3 |
| 20260906014829 | 25 | 355 | 1.6 | 6.4 | 0.03 | 1.45 | 1.45 | 90 | 1014.0 |
| 20260906014327 | 25 | 23 | 1.6 | 6.4 | 0.03 | 1.45 | 1.45 | 90 | 1014.0 |
| 20260906013826 | 25 | 300 | 0.0 | 6.4 | 0.03 | 1.45 | 1.45 | 90 | 1013.9 |
| 20260906013326 | 25 | 306 | 0.0 | 4.8 | 0.03 | 1.45 | 1.45 | 90 | 1013.8 |
| 20260906012823 | 25 | 321 | 0.0 | 4.8 | 0.03 | 1.45 | 1.45 | 90 | 1013.9 |
| 20260906012313 | 25 | 269 | 0.0 | 4.8 | 0.03 | 1.45 | 1.45 | 90 | 1013.9 |
| 20260906011817 | 26 | 315 | 0.0 | 4.8 | 0.03 | 1.45 | 1.45 | 90 | 1013.9 |
| 20260906010752 | 26 | 315 | 0.0 | 6.4 | 0.00 | 1.42 | 1.42 | 89 | 1013.8 |
| 20260906005736 | 26 | 277 | 0.0 | 3.2 | 0.00 | 1.42 | 1.42 | 89 | 1013.7 |
| 20260906005233 | 26 | 277 | 0.0 | 1.6 | 0.00 | 1.42 | 1.42 | 89 | 1013.7 |
| 20260906004219 | 26 | 277 | 0.0 | 0.0 | 0.00 | 1.42 | 1.42 | 88 | 1013.6 |
| 20260906003719 | 27 | 277 | 0.0 | 0.0 | 0.03 | 1.42 | 1.42 | 88 | 1013.6 |
| 20260906002706 | 27 | 277 | 0.0 | 0.0 | 0.03 | 1.42 | 1.42 | 88 | 1013.6 |
| 20260906001644 | 27 | 277 | 0.0 | 0.0 | 0.03 | 1.42 | 1.42 | 88 | 1013.6 |
| 20260906001137 | 27 | 277 | 0.0 | 3.2 | 0.03 | 1.42 | 1.42 | 88 | 1013.5 |
| 20260906000634 | 27 | 277 | 0.0 | 3.2 | 0.03 | 1.42 | 1.42 | 88 | 1013.5 |
| 20260906000115 | 28 | 167 | 0.0 | 0.0 | 0.03 | 1.42 | 1.42 | 88 | 1013.5 |
| 20260905235610 | 28 | 167 | 0.0 | 0.0 | 0.03 | 1.42 | 1.42 | 88 | 1013.4 |
| 20260905235057 | 28 | 167 | 0.0 | 0.0 | 0.03 | 1.42 | 1.42 | 87 | 1013.4 |
| 20260905234558 | 28 | 167 | 0.0 | 0.0 | 0.05 | 1.42 | 1.42 | 87 | 1013.3 |
| 20260905234030 | 28 | 167 | 0.0 | 0.0 | 0.03 | 1.40 | 1.42 | 87 | 1013.3 |
| 20260905233001 | 29 | 167 | 0.0 | 0.0 | 0.03 | 1.40 | 1.40 | 87 | 1013.3 |
| 20260905232504 | 29 | 167 | 0.0 | 0.0 | 0.03 | 1.40 | 1.40 | 87 | 1013.3 |
| 20260905231448 | 29 | 167 | 0.0 | 0.0 | 0.03 | 1.40 | 1.40 | 86 | 1013.3 |
| 20260905230935 | 30 | 167 | 0.0 | 0.0 | 0.03 | 1.40 | 1.40 | 85 | 1013.2 |
| 20260905225924 | 30 | 167 | 0.0 | 1.6 | 0.03 | 1.40 | 1.40 | 82 | 1013.2 |
| 20260905224905 | 31 | 167 | 0.0 | 1.6 | 0.03 | 1.40 | 1.40 | 81 | 1013.1 |
| 20260905224406 | 31 | 167 | 0.0 | 4.8 | 0.00 | 1.37 | 1.37 | 81 | 1013.0 |
| 20260905223906 | 31 | 167 | 1.6 | 6.4 | 0.00 | 1.37 | 1.37 | 79 | 1013.1 |
| 20260905222400 | 32 | 308 | 1.6 | 4.8 | 0.00 | 1.37 | 1.37 | 72 | 1013.1 |
| 20260905221355 | 32 | 355 | 0.0 | 3.2 | 0.00 | 1.37 | 1.37 | 74 | 1013.2 |
| 20260905220850 | 33 | 355 | 0.0 | 3.2 | 0.00 | 1.37 | 1.37 | 72 | 1013.2 |
| 20260905220352 | 33 | 355 | 1.6 | 3.2 | 0.00 | 1.37 | 1.37 | 73 | 1013.3 |
| 20260905215318 | 33 | 61 | 1.6 | 6.4 | 0.00 | 1.37 | 1.37 | 72 | 1013.5 |
| 20260905214806 | 33 | 0 | 1.6 | 4.8 | 0.00 | 1.37 | 1.37 | 69 | 1013.3 |
| 20260905214304 | 33 | 142 | 1.6 | 4.8 | 0.00 | 1.37 | 1.37 | 69 | 1013.1 |
| 20260905213801 | 33 | 142 | 1.6 | 12.9 | 0.00 | 1.37 | 1.37 | 70 | 1013.3 |
| 20260905213300 | 33 | 94 | 1.6 | 12.9 | 0.00 | 1.37 | 1.37 | 71 | 1013.5 |
| 20260905212758 | 33 | 323 | 1.6 | 6.4 | 0.00 | 1.37 | 1.37 | 71 | 1013.5 |
| 20260905212255 | 33 | 172 | 1.6 | 4.8 | 0.00 | 1.37 | 1.37 | 71 | 1013.6 |
| 20260905211755 | 33 | 347 | 1.6 | 4.8 | 0.00 | 1.37 | 1.37 | 71 | 1013.3 |
| 20260905211257 | 33 | 319 | 1.6 | 4.8 | 0.00 | 1.37 | 1.37 | 72 | 1013.3 |
| 20260905210747 | 33 | 9 | 1.6 | 4.8 | 0.00 | 1.37 | 1.37 | 73 | 1013.3 |
| 20260905210242 | 33 | 5 | 1.6 | 4.8 | 0.00 | 1.37 | 1.37 | 73 | 1013.5 |
| 20260905205742 | 32 | 5 | 1.6 | 4.8 | 0.03 | 1.37 | 1.37 | 72 | 1013.5 |
| 20260905205237 | 32 | 350 | 1.6 | 4.8 | 0.03 | 1.37 | 1.37 | 73 | 1013.4 |
| 20260905204741 | 32 | 350 | 1.6 | 6.4 | 0.03 | 1.37 | 1.37 | 72 | 1013.5 |
| 20260905203737 | 32 | 334 | 0.0 | 1.6 | 0.03 | 1.37 | 1.37 | 77 | 1013.8 |
| 20260905203216 | 32 | 334 | 0.0 | 0.0 | 0.03 | 1.37 | 1.37 | 75 | 1013.6 |
| 20260905202705 | 32 | 334 | 0.0 | 0.0 | 0.03 | 1.37 | 1.37 | 72 | 1013.6 |
| 20260905202204 | 33 | 334 | 0.0 | 0.0 | 0.03 | 1.37 | 1.37 | 72 | 1013.8 |
| 20260905201703 | 33 | 334 | 0.0 | 0.0 | 0.03 | 1.37 | 1.37 | 72 | 1013.9 |
| 20260905201152 | 33 | 334 | 0.0 | 0.0 | 0.03 | 1.37 | 1.37 | 71 | 1013.9 |
| 20260905200123 | 33 | 334 | 1.6 | 3.2 | 0.03 | 1.37 | 1.37 | 73 | 1014.1 |
| 20260905195619 | 33 | 334 | 1.6 | 3.2 | 0.00 | 1.35 | 1.35 | 73 | 1014.2 |
| 20260905195113 | 33 | 335 | 1.6 | 3.2 | 0.00 | 1.35 | 1.35 | 72 | 1014.2 |
| 20260905194615 | 33 | 335 | 1.6 | 3.2 | 0.00 | 1.35 | 1.35 | 72 | 1014.2 |
| 20260905194108 | 33 | 244 | 1.6 | 4.8 | 0.00 | 1.35 | 1.35 | 69 | 1014.3 |
| 20260905193602 | 33 | 156 | 1.6 | 4.8 | 0.00 | 1.35 | 1.35 | 70 | 1014.2 |
| 20260905193059 | 33 | 83 | 3.2 | 4.8 | 0.03 | 1.35 | 1.35 | 70 | 1014.2 |
| 20260905192559 | 33 | 325 | 1.6 | 4.8 | 0.03 | 1.35 | 1.35 | 71 | 1014.3 |
| 20260905192057 | 33 | 337 | 3.2 | 4.8 | 0.03 | 1.35 | 1.35 | 67 | 1014.3 |
| 20260905191049 | 33 | 345 | 1.6 | 3.2 | 0.03 | 1.35 | 1.35 | 70 | 1014.4 |
| 20260905190534 | 33 | 345 | 1.6 | 3.2 | 0.03 | 1.35 | 1.35 | 71 | 1014.5 |
| 20260905190030 | 33 | 345 | 1.6 | 6.4 | 0.03 | 1.35 | 1.35 | 69 | 1014.5 |
| 20260905185526 | 33 | 345 | 1.6 | 6.4 | 0.03 | 1.35 | 1.35 | 71 | 1014.5 |
| 20260905185021 | 33 | 344 | 1.6 | 4.8 | 0.03 | 1.35 | 1.35 | 69 | 1014.7 |
| 20260905184526 | 32 | 344 | 1.6 | 4.8 | 0.03 | 1.35 | 1.35 | 70 | 1014.9 |
| 20260905184014 | 32 | 0 | 3.2 | 6.4 | 0.05 | 1.35 | 1.35 | 69 | 1014.9 |
| 20260905183511 | 32 | 41 | 1.6 | 6.4 | 0.05 | 1.35 | 1.35 | 68 | 1015.1 |
| 20260905182510 | 32 | 70 | 1.6 | 4.8 | 0.03 | 1.32 | 1.32 | 72 | 1015.1 |
| 20260905182009 | 32 | 67 | 1.6 | 4.8 | 0.03 | 1.32 | 1.32 | 69 | 1015.1 |
| 20260905181508 | 32 | 67 | 3.2 | 6.4 | 0.03 | 1.32 | 1.32 | 72 | 1015.1 |
| 20260905181010 | 32 | 343 | 1.6 | 6.4 | 0.03 | 1.32 | 1.32 | 69 | 1015.1 |
| 20260905180007 | 32 | 303 | 1.6 | 8.0 | 0.03 | 1.32 | 1.32 | 75 | 1015.2 |
| 20260905175500 | 32 | 55 | 1.6 | 4.8 | 0.03 | 1.32 | 1.32 | 74 | 1015.4 |
| 20260905174459 | 31 | 30 | 0.0 | 4.8 | 0.05 | 1.32 | 1.32 | 74 | 1015.5 |
| 20260905173958 | 31 | 309 | 0.0 | 3.2 | 0.03 | 1.30 | 1.30 | 77 | 1015.4 |
| 20260905173449 | 31 | 309 | 0.0 | 3.2 | 0.03 | 1.30 | 1.30 | 75 | 1015.4 |
| 20260905172947 | 31 | 309 | 0.0 | 4.8 | 0.03 | 1.30 | 1.30 | 76 | 1015.4 |
| 20260905171927 | 30 | 303 | 1.6 | 6.4 | 0.03 | 1.30 | 1.30 | 75 | 1015.4 |
| 20260905171422 | 30 | 303 | 1.6 | 6.4 | 0.03 | 1.30 | 1.30 | 76 | 1015.5 |
| 20260905170923 | 30 | 335 | 0.0 | 4.8 | 0.03 | 1.30 | 1.30 | 76 | 1015.6 |
| 20260905170415 | 30 | 97 | 1.6 | 6.4 | 0.05 | 1.30 | 1.30 | 78 | 1015.5 |
| 20260905165906 | 30 | 98 | 1.6 | 6.4 | 0.05 | 1.30 | 1.30 | 77 | 1015.6 |
| 20260905165407 | 29 | 76 | 1.6 | 6.4 | 0.05 | 1.30 | 1.30 | 78 | 1015.8 |
| 20260905164900 | 29 | 256 | 0.0 | 4.8 | 0.05 | 1.30 | 1.30 | 79 | 1015.6 |
| 20260905164401 | 28 | 256 | 1.6 | 6.4 | 0.03 | 1.27 | 1.27 | 80 | 1015.5 |
| 20260905163349 | 28 | 65 | 1.6 | 6.4 | 0.05 | 1.27 | 1.27 | 82 | 1015.5 |
| 20260905162851 | 28 | 141 | 1.6 | 6.4 | 0.05 | 1.27 | 1.27 | 80 | 1015.6 |
| 20260905162344 | 28 | 197 | 1.6 | 4.8 | 0.08 | 1.27 | 1.27 | 83 | 1015.5 |
| 20260905161836 | 28 | 111 | 0.0 | 4.8 | 0.08 | 1.27 | 1.27 | 84 | 1015.4 |
| 20260905161315 | 27 | 175 | 0.0 | 4.8 | 0.10 | 1.27 | 1.27 | 85 | 1015.5 |
| 20260905160307 | 27 | 155 | 0.0 | 0.0 | 0.10 | 1.24 | 1.24 | 88 | 1015.6 |
| 20260905155805 | 26 | 155 | 0.0 | 4.8 | 0.13 | 1.24 | 1.24 | 88 | 1015.7 |
| 20260905155306 | 26 | 155 | 1.6 | 4.8 | 0.15 | 1.24 | 1.24 | 88 | 1015.8 |
| 20260905154746 | 26 | 250 | 1.6 | 4.8 | 0.18 | 1.24 | 1.24 | 88 | 1015.8 |
| 20260905153745 | 25 | 340 | 0.0 | 4.8 | 0.20 | 1.22 | 1.22 | 90 | 1015.8 |
| 20260905153245 | 25 | 261 | 0.0 | 3.2 | 0.23 | 1.22 | 1.22 | 91 | 1015.6 |
| 20260905152743 | 25 | 296 | 0.0 | 0.0 | 0.25 | 1.22 | 1.22 | 92 | 1015.5 |
| 20260905152236 | 25 | 57 | 0.0 | 0.0 | 0.25 | 1.19 | 1.19 | 93 | 1015.6 |
| 20260905151730 | 25 | 59 | 1.6 | 4.8 | 0.25 | 1.19 | 1.19 | 94 | 1015.7 |
| 20260905150724 | 24 | 128 | 1.6 | 3.2 | 0.28 | 1.14 | 1.17 | 94 | 1015.8 |
| 20260905150212 | 23 | 85 | 0.0 | 3.2 | 0.30 | 1.14 | 1.14 | 94 | 1015.8 |
| 20260905145713 | 23 | 85 | 0.0 | 4.8 | 0.30 | 1.12 | 1.12 | 94 | 1015.9 |
| 20260905145210 | 23 | 96 | 1.6 | 4.8 | 0.33 | 1.09 | 1.09 | 94 | 1015.9 |
| 20260905144706 | 23 | 139 | 1.6 | 4.8 | 0.36 | 1.07 | 1.07 | 94 | 1016.0 |
| 20260905144205 | 23 | 103 | 0.0 | 4.8 | 0.38 | 1.04 | 1.04 | 94 | 1015.8 |
| 20260905143702 | 22 | 225 | 1.6 | 4.8 | 0.43 | 1.02 | 1.02 | 94 | 1015.7 |
| 20260905143202 | 22 | 305 | 1.6 | 6.4 | 0.51 | 0.99 | 0.99 | 94 | 1015.7 |
| 20260905142702 | 22 | 46 | 1.6 | 8.0 | 0.58 | 0.97 | 0.97 | 94 | 1015.8 |
| 20260905142159 | 22 | 38 | 1.6 | 8.0 | 0.66 | 0.94 | 0.97 | 94 | 1015.6 |
| 20260905141659 | 22 | 279 | 0.0 | 4.8 | 0.86 | 0.91 | 0.94 | 94 | 1015.4 |
| 20260905141159 | 21 | 267 | 0.0 | 4.8 | 0.89 | 0.89 | 0.91 | 93 | 1015.2 |
| 20260905140654 | 21 | 148 | 0.0 | 3.2 | 0.86 | 0.86 | 0.89 | 93 | 1015.4 |
| 20260905140154 | 21 | 41 | 0.0 | 3.2 | 0.84 | 0.84 | 0.84 | 93 | 1015.2 |
| 20260905135651 | 21 | 321 | 1.6 | 8.0 | 0.79 | 0.79 | 0.81 | 93 | 1015.0 |
| 20260905135135 | 21 | 321 | 1.6 | 8.0 | 0.76 | 0.76 | 0.76 | 92 | 1015.0 |
| 20260905133115 | 22 | 68 | 4.8 | 11.3 | 0.46 | 0.46 | 0.48 | 92 | 1015.2 |
| 20260905132615 | 22 | 181 | 8.0 | 24.1 | 0.38 | 0.38 | 0.38 | 92 | 1015.0 |
| 20260905132112 | 22 | 153 | 6.4 | 24.1 | 0.28 | 0.28 | 0.28 | 92 | 1015.0 |
| 20260905131612 | 23 | 34 | 1.6 | 6.4 | 0.03 | 0.03 | 0.05 | 93 | 1016.5 |
| 20260905131112 | 23 | 236 | 1.6 | 6.4 | 0.00 | 0.00 | 0.00 | 94 | 1015.9 |
| 20260905130605 | 23 | 94 | 1.6 | 9.7 | 0.00 | 0.00 | 0.00 | 94 | 1015.5 |
| 20260905124558 | 23 | 283 | 0.0 | 4.8 | 0.00 | 0.00 | 0.00 | 94 | 1015.5 |
| 20260905123050 | 23 | 34 | 0.0 | 3.2 | 0.00 | 0.00 | 0.00 | 94 | 1015.4 |
| 20260905122548 | 23 | 34 | 0.0 | 1.6 | 0.00 | 0.00 | 0.00 | 94 | 1014.9 |
| 20260905122025 | 23 | 34 | 0.0 | 0.0 | 0.00 | 0.00 | 0.00 | 94 | 1014.8 |
| 20260905121513 | 23 | 34 | 0.0 | 0.0 | 0.00 | 0.00 | 0.00 | 94 | 1014.8 |
| 20260905121007 | 23 | 34 | 0.0 | 0.0 | 0.00 | 0.00 | 0.00 | 94 | 1014.7 |
| 20260905120508 | 23 | 34 | 0.0 | 0.0 | 0.00 | 0.00 | 0.00 | 94 | 1014.7 |
| 20260905114925 | 23 | 34 | 0.0 | 0.0 | 0.00 | 0.00 | 0.00 | 94 | 1014.5 |
| 20260905113906 | 23 | 34 | 0.0 | 1.6 | 0.00 | 0.00 | 0.00 | 94 | 1014.3 |
| 20260905113405 | 23 | 34 | 0.0 | 1.6 | 0.00 | 0.00 | 0.00 | 94 | 1014.4 |
| 20260905112905 | 23 | 34 | 0.0 | 1.6 | 0.00 | 0.00 | 0.00 | 94 | 1014.3 |
| 20260905111904 | 23 | 34 | 0.0 | 3.2 | 0.00 | 0.00 | 0.00 | 94 | 1014.2 |
| 20260905111404 | 22 | 34 | 0.0 | 1.6 | 0.00 | 0.00 | 0.00 | 93 | 1014.1 |
| 20260905110855 | 22 | 34 | 0.0 | 1.6 | 0.00 | 0.00 | 0.00 | 93 | 1014.1 |
| 20260905105837 | 22 | 34 | 0.0 | 1.6 | 0.00 | 0.00 | 0.00 | 93 | 1014.1 |
| 20260905105310 | 22 | 34 | 0.0 | 1.6 | 0.00 | 0.00 | 0.00 | 93 | 1014.3 |
| 20260905104811 | 22 | 34 | 0.0 | 4.8 | 0.00 | 0.00 | 0.00 | 93 | 1014.3 |
| 20260905104305 | 22 | 34 | 0.0 | 4.8 | 0.00 | 0.00 | 0.00 | 93 | 1014.3 |
| 20260905103805 | 22 | 37 | 0.0 | 0.0 | 0.00 | 0.00 | 0.00 | 93 | 1014.4 |
| 20260905103304 | 22 | 37 | 0.0 | 0.0 | 0.00 | 0.00 | 0.00 | 93 | 1014.2 |
| 20260905102801 | 22 | 37 | 0.0 | 0.0 | 0.00 | 0.00 | 0.00 | 93 | 1014.3 |
| 20260905102257 | 23 | 37 | 0.0 | 0.0 | 0.00 | 0.00 | 0.00 | 93 | 1014.3 |
| 20260905101736 | 23 | 37 | 0.0 | 0.0 | 0.00 | 0.00 | 0.00 | 93 | 1014.2 |
| 20260905101235 | 22 | 37 | 0.0 | 0.0 | 0.00 | 0.00 | 0.00 | 93 | 1014.2 |
| 20260905100703 | 22 | 37 | 0.0 | 0.0 | 0.00 | 0.00 | 0.00 | 93 | 1014.1 |
| 20260905095702 | 23 | 37 | 0.0 | 0.0 | 0.00 | 0.00 | 0.00 | 93 | 1014.3 |
| 20260905095206 | 23 | 37 | 0.0 | 0.0 | 0.00 | 0.00 | 0.00 | 93 | 1014.2 |
| 20260905094657 | 23 | 37 | 0.0 | 0.0 | 0.00 | 0.00 | 0.00 | 93 | 1014.3 |
| 20260905094149 | 23 | 37 | 0.0 | 0.0 | 0.00 | 0.00 | 0.00 | 93 | 1014.2 |